Simultaneous Nadir Overpasses (SNOs) Predictions

Prediction of SNOs between AQUA and METOP-A Satellite Orbit:

Table of predicted SNOs for the next 14.0 days since TLE Epoch: 9/26/2014
Index Date (AQUA) Time (AQUA) Lat,Lon (AQUA) SZA (AQUA ) Date (METOP-A) Time (METOP-A) Lat,Lon (METOP-A) SZA (METOP-A ) Distance(km) Time Diff (sec)
1 09/28/2014 19:01:12 -73.73, 69.14 104.12 09/28/2014 19:00:07 -73.72, 69.05 104.13 2.94 65
2 09/28/2014 19:50:41 73.80,-123.38 75.97 09/28/2014 19:50:46 73.79,-123.47 75.95 3.23 5
3 09/28/2014 20:40:11 -74.04, 43.74 103.78 09/28/2014 20:41:22 -74.05, 44.50 103.78 23.22 71
4 10/01/2014 14:35:27 -73.75, 135.54 103.01 10/01/2014 14:34:28 -73.77, 135.58 102.99 2.69 59
5 10/01/2014 15:24:56 73.83, -56.99 77.08 10/01/2014 15:25:07 73.83, -56.94 77.09 1.76 11
6 10/01/2014 16:14:31 -74.32, 109.53 102.40 10/01/2014 16:15:39 -74.29, 111.52 102.46 59.97 68
7 10/04/2014 10:09:40 -73.77,-158.05 101.91 10/04/2014 10:08:49 -73.77,-158.02 101.91 0.91 51
8 10/04/2014 10:59:09 73.85, 9.41 78.19 10/04/2014 10:59:28 73.82, 9.45 78.16 2.64 19
9 10/04/2014 11:48:49 -74.59, 175.33 101.03 10/04/2014 11:49:54 -74.58, 178.68 101.09 99.29 65
10 10/07/2014 05:43:53 -73.77, -91.62 100.83 10/07/2014 05:43:11 -73.75, -91.64 100.85 2.49 42
11 10/07/2014 06:33:22 73.86, 75.83 79.28 10/07/2014 06:33:49 73.86, 75.94 79.27 3.50 27
12 10/10/2014 01:18:05 -73.78, -25.17 99.76 10/10/2014 01:17:32 -73.78, -25.15 99.75 0.86 33
13 10/10/2014 02:07:33 73.81, 142.38 80.30 10/10/2014 02:08:11 73.83, 142.30 80.32 3.24 38




NCC Satellite Simultaneous Nadir Overpasses (SNOs) Prediction Service
